Content
SEND FEEDBACK

Daily
Averages
Monthly
Summary
Mexico

CANCUN, QUINTANA ROO


Home > North America > Mexico > Quintana Roo
Elevation: 30 feet     Latitude: 21 09N     Longitude: 086 49W

WEATHER
 
SELECT A DAY
Number of Records: 163,700;   Date Range: 1/1/95 - 7/27/14
 
SHARE

PRINT THIS DATA

[ ← Previous Day ]
WEATHER ALMANAC - FEBRUARY 5, 2013
[ Next Day → ]
[ °C ]   °F
Weather ElementAverageHighLow
Temperature74.1 °F82.4 °F (11:49 am)62.6 °F (3:45 am)
Dewpoint66.7 °F69.8 °F (7:40 am)60.8 °F (6:44 am)
Humidity78.7 %100 % (3:45 am)61 % (9:44 am)
Barometer29.98 in30.03 in (10:41 am)29.94 in (2:46 am)
Wind Speed6.1 mph12.7 mph (1:42 pm)
Weather ElementAverage
Visibility7 mi
Wind DirectionE (95.2 °)

Weather ElementTotal
Precipitation---
Cooling Degree Days7.5 (Base 65)
Growing Degree Days22.5 (Base 50)
Averaged from 23 records on February 5, 2013
WEATHER CONDITIONS BREAKOUT
WIND DIRECTION BREAKOUT
WEATHER BY HOUR - FEBRUARY 5, 2013
[ °C ]   °F
Local TimeTemperatureDewpointHumidityBarometerVisibilityWind DirectionWind SpeedGust SpeedPrecipitationEventsConditions
1:44 AM64.4 °F62.6 °F94 %29.96 in7.0 miCalmScattered Clouds
2:46 AM64.4 °F62.6 °F94 %29.94 in7.0 miCalmScattered Clouds
3:45 AM62.6 °F62.6 °F100 %29.94 in7.0 miCalmScattered Clouds
4:44 AM62.6 °F62.6 °F100 %29.95 in7.0 miCalmScattered Clouds
5:45 AM62.6 °F62.6 °F100 %29.96 in7.0 miNE (50°)5.8 mphPartly Cloudy
6:44 AM62.6 °F60.8 °F94 %29.98 in7.0 miENE (70°)5.8 mphPartly Cloudy
7:40 AM71.6 °F69.8 °F94 %29.99 in7.0 miEast (90°)3.5 mphClear
8:45 AM78.8 °F69.8 °F74 %30.02 in7.0 miESE (110°)6.9 mphScattered Clouds
9:44 AM80.6 °F66.2 °F61 %30.02 in7.0 miEast (90°)8.1 mphMostly Cloudy
10:41 AM80.6 °F66.2 °F61 %30.03 in7.0 miESE (110°)8.1 mphMostly Cloudy
11:49 AM82.4 °F68.0 °F62 %30.01 in7.0 miSE (130°)9.2 mphMostly Cloudy
12:41 PM80.6 °F69.8 °F70 %29.98 in7.0 miESE (110°)8.1 mphMostly Cloudy
1:42 PM80.6 °F68.0 °F65 %29.96 in7.0 miSE (130°)12.7 mphMostly Cloudy
2:48 PM80.6 °F68.0 °F65 %29.95 in7.0 miSE (130°)10.4 mphMostly Cloudy
3:43 PM80.6 °F68.0 °F65 %29.95 in7.0 miSSE (150°)11.5 mphMostly Cloudy
4:46 PM78.8 °F68.0 °F69 %29.95 in7.0 miSSE (160°)8.1 mphScattered Clouds
5:54 PM77.0 °F68.0 °F74 %29.96 in7.0 miESE (120°)8.1 mphScattered Clouds
6:44 PM77.0 °F69.8 °F78 %29.96 in7.0 miESE (120°)6.9 mphScattered Clouds
7:51 PM75.2 °F68.0 °F78 %29.99 in7.0 miESE (110°)3.5 mphScattered Clouds
8:46 PM75.2 °F68.0 °F78 %29.99 in7.0 miSE (130°)4.6 mphScattered Clouds
9:44 PM75.2 °F68.0 °F78 %30.01 in7.0 miSE (130°)5.8 mphScattered Clouds
10:45 PM75.2 °F68.0 °F78 %30.01 in7.0 miESE (120°)8.1 mphScattered Clouds
11:46 PM75.2 °F68.0 °F78 %29.98 in7.0 miSE (130°)4.6 mphScattered Clouds
Hourly data recorded from MMUN, located miles away from Cancun, Quintana Roo







STORIES FROM OUR PARTNERS